Vertical_Velocity
0 1 2 -1 -2 -4 -4 -3 -2 -1 -3 -4 -2 -3 -2 -3 -3 -4 -3 1 24 -4 4 1 2 0 4 1 4 6 1 -4 -2 -2 -13 -3 0 5 -0 -2 -3 -2 0 3 0
1 0 1 -2 -3 -2 -2 -1 -2 -2 -4 -4 -2 -3 -1 -3 -5 -2 -1 -0 5 2 2 -1 1 3 6 -1 1 4 -1 5 7 6 -14 -5 4 5 1 -2 -5 -2 2 1 1
0 -0 -1 -2 -3 -2 -1 -3 -3 -2 -4 -4 -2 -4 -2 -1 -0 -3 -1 -2 -3 -1 0 -1 1 2 4 2 3 -4 3 8 8 7 7 -5 -1 3 1 -1 -2 3 2 1 1
0 -1 -1 -2 -2 -0 1 -3 -3 -3 -2 -5 -2 -2 -3 -2 -1 -1 0 0 0 -1 -1 -0 3 0 4 1 2 2 2 1 5 1 3 0 -18 3 5 2 3 2 7 11 3
-1 -1 -1 -2 -1 -0 -0 -3 -3 -4 -2 -4 -3 -1 -3 -3 -3 -2 -2 -1 0 1 6 1 -1 1 0 3 1 4 2 1 5 -1 -1 2 -12 13 2 -1 3 2 -2 -1 4
-2 -1 -1 -2 -1 -1 -1 -1 -5 -3 -3 -3 -4 -4 -3 -2 1 -1 0 -1 -0 0 6 0 0 3 1 0 2 2 -1 -2 3 4 -6 -0 4 0 7 2 2 2 2 1 2
-1 -2 -1 -1 -2 -2 -2 -1 -4 -4 -3 -3 -3 -3 -4 -3 -1 0 -1 0 1 1 -1 1 -0 0 2 1 -1 1 -2 -1 2 0 3 -6 -19 3 6 -1 3 6 6 6 3
-2 -2 -0 -0 -1 -2 -3 -2 -2 -3 -2 -3 -1 -2 -4 -4 -4 -0 -2 -1 0 -0 1 -1 -1 0 -3 2 -1 -1 -1 0 1 4 -3 -1 -6 -18 -0 -32 6 5 5 2 5
-0 -3 -2 -1 1 -0 -1 -2 -2 -0 -2 -3 -1 -0 -3 -2 0 -2 -1 -1 -1 -1 -0 0 -1 -1 1 -1 -2 2 1 -1 -0 2 3 0 6 0 15 -2 -38 11 7 2 7
-1 -2 -1 -2 -0 -0 -0 -2 -1 -1 -1 -3 -1 -2 -3 -4 -4 -3 -4 0 -1 -0 -2 -1 -0 -1 -1 2 -1 -1 -0 -1 -1 0 1 3 -1 6 -7 3 24 -1 9 7 6
-1 -1 -1 -3 -2 -0 0 -0 -1 -3 -2 -4 1 -0 3 1 -2 -2 -2 -2 -2 0 -2 -2 -0 -1 -1 -0 0 1 2 -1 -2 -1 -0 6 -2 4 8 -35 10 -22 8 5 6
0 -1 -2 -1 -1 0 1 -2 2 1 -2 -2 -1 -3 0 -0 3 -4 -1 -1 -4 -5 1 -0 -1 0 0 -0 1 2 -1 -1 4 1 -1 3 -1 6 -4 -4 -4 -22 1 6 7
-0 -2 -3 -2 -0 -1 -2 1 -4 -1 -1 -2 -3 -2 -4 -1 0 -1 -4 0 -0 -3 -3 -1 0 -0 1 -1 -2 0 1 1 -0 0 -1 -1 -6 -5 1 -0 -0 -7 -41 -4 5
-2 -3 0 -4 -5 -1 1 -2 -1 -3 -3 2 -4 -2 -1 -4 -3 1 -0 -4 -2 -0 -2 -4 -1 -2 -3 0 -1 -3 0 3 1 0 -2 2 -8 -6 3 2 -4 2 -6 -31 2
-3 0 -1 -2 -2 -5 -2 1 -1 -5 -9 -3 -2 -3 -0 -1 -1 -2 0 1 -4 -0 2 3 -1 -1 -0 -2 -1 1 0 -2 1 1 1 -2 1 -22 -4 -9 -7 -2 -2 -5 -24
-2 -2 -2 -2 -1 -2 -3 -3 -1 -7 -6 -3 -2 -3 -2 -1 -1 -2 -4 -1 1 -1 -0 2 2 -2 -1 0 -2 -1 -0 1 -2 2 0 -1 3 -8 -11 -4 -2 -1 3 4 -4
-0 0 -1 -3 -3 -1 -4 -4 -3 -8 -2 -1 -3 0 -3 -3 -1 -2 -2 -5 -4 -8 -6 -2 1 1 -2 -0 -0 -0 1 -3 -4 -2 -6 1 4 -26 -0 3 -1 -2 -0 10 -2
1 -0 0 -0 -4 -1 1 -1 -4 0 -1 -0 -1 -2 1 -2 -0 1 -0 -2 -2 -2 -2 -3 -10 -1 2 2 -3 -1 -1 0 -3 -2 -4 1 -5 -23 -3 -3 1 1 0 2 1
1 -0 1 0 -1 -2 -1 -0 -4 -4 -3 -3 -2 -2 -2 -2 1 -2 1 -3 -1 1 -3 -2 -5 -0 1 -1 1 2 -3 -0 1 1 0 -2 -3 -16 -10 2 -1 2 3 4 4
1 0 -0 1 2 -1 -2 0 -0 -0 -0 -0 -3 -3 -4 -1 -4 0 -1 1 -2 -2 1 0 -7 -2 -1 0 1 1 5 1 0 -1 -1 -3 -3 -19 0 6 2 -1 -1 -0 -3
2 1 3 1 -0 -1 -1 -1 -1 -2 1 -3 1 -2 -1 -3 -0 -4 -1 0 -0 2 1 3 2 -3 1 1 2 0 -3 -1 3 -1 -1 -1 -11 4 -2 0 -2 0 1 -1 -1
-2 -1 0 0 -0 -1 0 1 -1 0 -0 1 -3 0 -2 -2 -1 0 -3 -5 -0 3 1 1 0 -4 1 0 1 1 0 1 4 -2 -0 0 -37 -2 1 3 6 1 2 1 1
-3 -2 3 2 -2 3 -0 -0 -1 -0 0 -1 1 2 2 1 -6 -0 0 0 2 -1 -1 2 1 -5 -8 1 0 -2 -1 3 4 3 -5 5 -19 4 3 -1 0 2 -1 -3 -0
1 -3 -2 -1 2 -0 2 2 1 1 0 -2 -1 1 1 0 4 -4 -3 -1 2 0 2 0 1 3 -6 -7 9 1 2 2 7 2 -6 -19 -17 -1 4 2 -5 -1 2 1 -1
2 -6 0 -4 0 3 2 1 0 3 1 1 -6 3 -1 -3 -2 0 0 1 1 0 1 -0 -7 0 2 -0 2 -0 -1 7 -0 -1 2 -3 -16 4 4 4 -0 -0 0 2 2
0 5 -2 -2 2 1 3 -4 2 5 2 -0 -1 4 2 -5 8 -7 2 6 4 -3 2 -0 -6 -5 -19 3 0 -11 4 5 3 3 -6 -2 -37 17 5 -1 2 -0 -2 -0 3
2 1 1 -5 1 2 1 3 -3 2 -0 4 3 -1 2 2 0 5 5 1 3 -2 6 2 3 1 -16 0 -3 -3 -2 -3 3 3 1 -5 8 0 1 -1 -0 -1 -3 -0 -1
Height
3136 3134 3131 3126 3122 3117 3112 3107 3101 3095 3090 3085 3082 3079 3075 3073 3070 3070 3069 3069 3067 3067 3068 3068 3069 3072 3076 3081 3084 3088 3093 3095 3101 3106 3114 3119 3122 3124 3126 3130 3133 3135 3137 3139 3139
3137 3134 3130 3126 3122 3117 3112 3106 3100 3095 3090 3085 3083 3080 3077 3074 3073 3072 3072 3069 3062 3067 3067 3067 3068 3070 3073 3078 3082 3085 3087 3093 3101 3105 3111 3116 3119 3121 3124 3127 3130 3133 3135 3137 3138
3137 3134 3130 3127 3122 3117 3112 3107 3101 3096 3091 3086 3084 3081 3078 3076 3075 3073 3072 3070 3069 3068 3068 3067 3068 3069 3072 3075 3080 3083 3085 3092 3097 3101 3106 3111 3115 3119 3121 3123 3128 3131 3134 3136 3136
3137 3134 3131 3127 3122 3117 3112 3108 3102 3097 3092 3088 3086 3082 3080 3078 3079 3074 3073 3071 3070 3069 3069 3068 3068 3069 3071 3074 3078 3081 3085 3090 3093 3097 3102 3107 3113 3116 3118 3122 3125 3129 3132 3135 3136
3137 3134 3131 3127 3122 3118 3113 3109 3103 3098 3094 3090 3087 3084 3082 3080 3078 3075 3074 3071 3069 3068 3068 3068 3069 3069 3071 3072 3076 3078 3083 3089 3092 3094 3097 3106 3108 3113 3116 3118 3122 3126 3129 3132 3134
3136 3134 3131 3128 3123 3119 3115 3110 3105 3100 3095 3092 3089 3086 3083 3082 3078 3076 3073 3071 3070 3069 3069 3068 3068 3070 3071 3073 3075 3077 3081 3086 3090 3093 3095 3102 3107 3110 3113 3115 3120 3123 3127 3129 3132
3136 3133 3131 3128 3124 3120 3116 3111 3106 3101 3098 3094 3091 3088 3086 3084 3080 3077 3075 3073 3071 3070 3069 3068 3069 3071 3072 3073 3075 3077 3081 3084 3088 3092 3094 3097 3104 3106 3110 3112 3117 3121 3123 3126 3129
3136 3134 3130 3127 3124 3121 3117 3113 3108 3103 3099 3096 3092 3090 3087 3084 3081 3078 3077 3075 3073 3071 3070 3070 3070 3071 3072 3074 3075 3078 3080 3082 3086 3090 3094 3097 3098 3106 3109 3112 3115 3119 3121 3123 3127
3137 3135 3132 3128 3124 3121 3118 3114 3110 3106 3101 3098 3094 3091 3088 3086 3083 3080 3079 3077 3075 3074 3072 3071 3072 3072 3074 3075 3077 3077 3078 3080 3085 3088 3092 3095 3097 3099 3106 3109 3112 3118 3118 3121 3123
3138 3136 3133 3129 3125 3121 3119 3116 3113 3109 3105 3100 3097 3096 3092 3088 3084 3082 3081 3079 3078 3076 3075 3074 3073 3073 3075 3076 3077 3077 3079 3080 3082 3086 3088 3090 3093 3096 3099 3105 3109 3109 3116 3119 3122
3140 3138 3135 3130 3126 3122 3119 3117 3117 3113 3107 3102 3100 3096 3094 3091 3087 3084 3083 3082 3081 3080 3077 3076 3076 3075 3076 3077 3078 3079 3080 3081 3083 3085 3086 3087 3091 3094 3096 3099 3103 3109 3112 3116 3120
3141 3139 3136 3133 3127 3124 3120 3117 3115 3115 3110 3106 3103 3100 3096 3093 3090 3087 3085 3085 3083 3082 3081 3080 3078 3077 3077 3078 3079 3080 3081 3082 3084 3085 3085 3086 3087 3091 3093 3096 3101 3109 3111 3112 3115
3143 3140 3137 3133 3129 3126 3122 3118 3116 3114 3113 3109 3106 3102 3099 3096 3093 3090 3088 3086 3084 3083 3083 3082 3082 3080 3080 3080 3081 3081 3082 3083 3084 3084 3085 3085 3085 3087 3090 3093 3097 3101 3106 3107 3109
3144 3141 3138 3135 3133 3128 3124 3120 3117 3114 3114 3114 3109 3106 3103 3098 3096 3093 3091 3089 3087 3086 3084 3084 3083 3082 3081 3081 3082 3082 3083 3083 3083 3083 3084 3085 3082 3082 3085 3088 3092 3096 3101 3106 3105
3144 3142 3139 3136 3133 3130 3127 3122 3118 3116 3116 3115 3111 3108 3105 3102 3100 3096 3094 3091 3089 3087 3087 3085 3082 3082 3082 3082 3082 3083 3082 3082 3082 3082 3082 3082 3084 3077 3081 3082 3085 3090 3093 3098 3101
3143 3142 3139 3137 3134 3132 3128 3124 3121 3120 3118 3117 3113 3109 3106 3103 3101 3098 3096 3094 3091 3088 3086 3084 3082 3082 3082 3082 3082 3083 3083 3082 3082 3081 3080 3079 3080 3075 3076 3077 3080 3085 3089 3092 3097
3143 3141 3139 3137 3135 3132 3129 3126 3125 3122 3123 3119 3114 3109 3106 3103 3101 3099 3097 3095 3093 3090 3087 3085 3084 3082 3082 3083 3082 3082 3082 3082 3083 3083 3080 3076 3077 3072 3073 3073 3076 3078 3080 3085 3089
3142 3141 3138 3137 3134 3132 3129 3127 3125 3125 3121 3119 3115 3112 3108 3104 3102 3099 3098 3096 3094 3093 3089 3087 3085 3084 3083 3082 3082 3082 3082 3082 3083 3084 3078 3075 3070 3067 3069 3071 3072 3073 3075 3077 3081
3140 3139 3137 3136 3134 3131 3131 3128 3126 3124 3122 3119 3116 3112 3110 3107 3105 3101 3098 3097 3096 3094 3094 3089 3086 3084 3082 3081 3082 3080 3080 3081 3080 3079 3078 3072 3068 3067 3067 3068 3068 3069 3071 3073 3075
3138 3136 3135 3134 3132 3131 3130 3128 3125 3123 3121 3118 3116 3114 3111 3108 3106 3103 3100 3098 3096 3095 3092 3089 3085 3082 3082 3081 3080 3079 3080 3080 3079 3079 3077 3069 3066 3063 3064 3063 3062 3063 3065 3067 3069
3135 3134 3133 3132 3130 3130 3128 3126 3123 3122 3120 3119 3116 3113 3112 3109 3106 3104 3103 3100 3097 3095 3091 3088 3087 3084 3081 3079 3078 3078 3077 3078 3077 3076 3073 3072 3063 3061 3060 3057 3055 3058 3059 3062 3063
3133 3131 3130 3129 3129 3126 3125 3123 3122 3120 3118 3116 3114 3112 3110 3108 3105 3103 3102 3100 3098 3095 3091 3089 3085 3080 3077 3075 3075 3075 3075 3075 3076 3072 3069 3068 3057 3059 3060 3055 3053 3055 3057 3057 3058
3127 3127 3126 3126 3124 3122 3121 3121 3119 3117 3116 3114 3112 3110 3108 3106 3105 3101 3099 3098 3096 3094 3092 3089 3084 3081 3076 3076 3073 3072 3072 3072 3071 3069 3065 3065 3054 3057 3057 3057 3056 3055 3055 3055 3055
3123 3122 3121 3120 3119 3119 3118 3116 3115 3114 3112 3111 3110 3108 3106 3103 3102 3099 3097 3095 3093 3091 3089 3087 3083 3082 3080 3075 3073 3069 3067 3067 3067 3064 3059 3054 3049 3050 3053 3054 3055 3053 3051 3050 3050
3117 3116 3116 3115 3115 3114 3113 3112 3111 3111 3109 3107 3106 3105 3103 3100 3098 3095 3092 3091 3088 3086 3085 3083 3080 3078 3073 3070 3066 3060 3057 3058 3056 3055 3055 3047 3048 3042 3047 3049 3049 3049 3048 3047 3047
3112 3111 3111 3110 3109 3109 3107 3106 3106 3105 3104 3102 3100 3101 3098 3096 3095 3091 3089 3087 3085 3082 3081 3077 3073 3071 3066 3065 3060 3053 3050 3048 3046 3047 3043 3044 3036 3042 3041 3040 3041 3041 3041 3043 3044
3106 3104 3103 3104 3103 3103 3102 3101 3100 3099 3098 3097 3095 3094 3093 3093 3090 3087 3084 3082 3080 3078 3076 3073 3069 3066 3061 3059 3055 3046 3042 3041 3039 3040 3039 3038 3038 3034 3032 3032 3033 3034 3035 3037 3038